Weather History for Romeoville, IL

Change the Weather History Date:

Sunday, January 6, 2013

  Actual Average Record
Temperature  
Mean Temperature 26 °F 23 °F  
Max Temperature 35 °F 31 °F 61 °F (2008)
Min Temperature 17 °F 16 °F -17 °F (2014)
Degree Days  
Heating Degree Days 39 42  
Month to date heating degree days 251 249  
Since 1 July heating degree days 2436 2635  
Cooling Degree Days 0 0  
Month to date cooling degree days 0 0  
Year to date cooling degree days 0 0  
Moisture  
Dew Point 22 °F    
Average Humidity 85    
Maximum Humidity 100    
Minimum Humidity 70    
Precipitation  
Precipitation T in 0.07 in 0.25 in (1994)
Month to date precipitation 0.03 0.44  
Year to date precipitation 0.03 0.44  
Snow  
Snow T in 0.40 in 3.60 in (1994)
Month to date snowfall 0.4 2.1  
Since 1 July snowfall 1.4 12.3  
Snow Depth T in    
Sea Level Pressure  
Sea Level Pressure 30.12 in    
Wind  
Wind Speed 14 mph (West)    
Max Wind Speed 21 mph    
Max Gust Speed 26 mph    
Visibility 9 miles    
Events      
T = Trace of Precipitation, MM = Missing Value Source: NWS Daily Summary

Daily Weather History Graph

Daily Weather History Graph

Search for Another Location

Airport:

Trip Planner

Search our weather history database for the weather conditions in past years. The results will help you decide how hot, cold, wet, or windy it might be!

Date:

Astronomy

Jan. 06, 2013 Rise Set
Actual Time 7:19 AM CST 4:37 PM CST
Civil Twilight 6:48 AM CST 5:09 PM CST
Nautical Twilight 6:13 AM CST 5:43 PM CST
Astronomical Twilight 5:39 AM CST 6:17 PM CST
Moon 1:31 AM CST (1/6) 12:06 PM CST (1/6)
Length of Visible Light 10h 20m
Length of Day
9h 18m
Waning Crescent, 33% of the Moon is Illuminated
Jan 6
Waning Crescent
Jan 11
New
Jan 18
First Quarter
Jan 26
Full
Feb 3
Last Quarter

Hourly Weather History & Observations

Time (CST) Temp. Windchill Dew Point Humidity Pressure Visibility Wind Dir Wind Speed Gust Speed Precip Events Conditions
12:15 AM 34.7 °F 25.1 °F 32.9 °F 93% 29.94 in 10.0 mi SW 15.0 mph 21.9 mph N/A   Overcast
12:35 AM 34.7 °F 25.1 °F 32.9 °F 93% 29.94 in 10.0 mi SW 15.0 mph - N/A   Overcast
12:55 AM 34.9 °F 25.7 °F 32.7 °F 92% 29.93 in 10.0 mi SW 13.8 mph 18.4 mph N/A   Overcast
1:15 AM 34.9 °F 25.7 °F 32.5 °F 91% 29.93 in 10.0 mi WSW 13.8 mph - N/A   Overcast
1:35 AM 35.1 °F 25.9 °F 32.7 °F 91% 29.93 in 10.0 mi WSW 13.8 mph - N/A   Overcast
1:55 AM 34.9 °F 25.7 °F 32.5 °F 91% 29.94 in 10.0 mi WSW 13.8 mph 18.4 mph N/A   Overcast
2:15 AM 34.7 °F 25.5 °F 32.5 °F 92% 29.93 in 10.0 mi WSW 13.8 mph 18.4 mph N/A   Overcast
2:35 AM 34.7 °F 25.1 °F 32.4 °F 91% 29.93 in 10.0 mi WSW 15.0 mph - N/A   Overcast
2:55 AM 34.7 °F 25.1 °F 32.5 °F 92% 29.93 in 10.0 mi WSW 15.0 mph - N/A   Overcast
3:15 AM 34.7 °F 25.9 °F 32.5 °F 92% 29.93 in 10.0 mi WSW 12.7 mph - N/A   Overcast
3:35 AM 34.7 °F 24.3 °F 32.0 °F 90% 29.93 in 10.0 mi WSW 17.3 mph 21.9 mph N/A   Overcast
3:55 AM 32.0 °F 20.5 °F 28.4 °F 87% 29.93 in 10.0 mi West 18.4 mph 24.2 mph N/A   Overcast
4:15 AM 31.3 °F 18.9 °F 28.0 °F 88% 29.93 in 10.0 mi West 20.7 mph 25.3 mph N/A   Scattered Clouds
4:35 AM 28.4 °F 15.8 °F 24.6 °F 86% 29.94 in 10.0 mi West 18.4 mph 24.2 mph N/A   Clear
4:55 AM 27.7 °F 15.2 °F 24.1 °F 86% 29.96 in 10.0 mi West 17.3 mph 21.9 mph N/A   Mostly Cloudy
5:15 AM 26.6 °F 15.2 °F 23.5 °F 88% 29.96 in 10.0 mi West 13.8 mph 24.2 mph N/A   Overcast
5:35 AM 26.6 °F 14.7 °F 23.5 °F 88% 29.97 in 10.0 mi West 15.0 mph 24.2 mph N/A   Overcast
5:55 AM 26.1 °F 12.7 °F 21.9 °F 84% 29.99 in 10.0 mi WNW 18.4 mph 25.3 mph N/A   Overcast
6:15 AM 24.6 °F 12.7 °F 20.8 °F 86% 29.99 in 10.0 mi WNW 13.8 mph - N/A   Overcast
6:35 AM 24.4 °F 10.6 °F 20.3 °F 84% 30.00 in 10.0 mi West 18.4 mph 24.2 mph N/A   Overcast
6:55 AM 24.1 °F 11.5 °F 20.3 °F 85% 30.00 in 10.0 mi West 15.0 mph 20.7 mph N/A   Overcast
7:15 AM 23.2 °F 9.8 °F 19.2 °F 85% 30.01 in 10.0 mi West 16.1 mph - N/A   Overcast
7:35 AM 23.0 °F 10.1 °F 19.0 °F 85% 30.02 in 10.0 mi West 15.0 mph - N/A   Overcast
7:55 AM 23.0 °F 9.6 °F 19.0 °F 85% 30.03 in 10.0 mi West 16.1 mph 20.7 mph N/A   Overcast
8:15 AM 22.1 °F 7.6 °F 18.3 °F 85% 30.04 in 10.0 mi WNW 18.4 mph 24.2 mph N/A   Overcast
8:35 AM 21.2 °F 6.0 °F 17.2 °F 85% 30.05 in 10.0 mi WNW 19.6 mph 23.0 mph N/A   Mostly Cloudy
8:55 AM 21.9 °F 7.3 °F 18.0 °F 85% 30.06 in 10.0 mi WNW 18.4 mph - N/A   Scattered Clouds
9:15 AM 22.5 °F 7.6 °F 18.0 °F 83% 30.07 in 10.0 mi WNW 19.6 mph 26.5 mph N/A   Scattered Clouds
9:35 AM 22.3 °F 8.2 °F 17.6 °F 82% 30.09 in 10.0 mi WNW 17.3 mph - N/A   Mostly Cloudy
9:55 AM 23.0 °F 10.6 °F 18.7 °F 84% 30.09 in 10.0 mi WNW 13.8 mph - N/A   Overcast
10:15 AM 23.7 °F 9.3 °F 18.7 °F 81% 30.10 in 10.0 mi NW 19.6 mph 23.0 mph N/A   Overcast
10:35 AM 24.6 °F 11.7 °F 19.2 °F 80% 30.11 in 10.0 mi WNW 16.1 mph - N/A   Overcast
10:55 AM 25.7 °F 12.7 °F 20.3 °F 80% 30.10 in 10.0 mi NW 17.3 mph 20.7 mph N/A   Overcast
11:15 AM 26.4 °F 13.2 °F 21.0 °F 80% 30.11 in 10.0 mi WNW 18.4 mph 23.0 mph N/A   Overcast
11:35 AM 27.3 °F 14.8 °F 21.7 °F 80% 30.10 in 10.0 mi WNW 17.3 mph - N/A   Overcast
11:55 AM 27.9 °F 16.3 °F 21.4 °F 77% 30.10 in 10.0 mi NW 15.0 mph - N/A   Overcast
12:15 PM 28.2 °F 15.5 °F 21.9 °F 77% 30.12 in 10.0 mi NW 18.4 mph 24.2 mph N/A   Overcast
12:35 PM 29.1 °F 17.1 °F 21.9 °F 74% 30.12 in 10.0 mi NW 17.3 mph 24.2 mph N/A   Overcast
12:55 PM 29.8 °F 18.9 °F 22.6 °F 75% 30.12 in 10.0 mi NW 15.0 mph 20.7 mph N/A   Overcast
1:15 PM 29.1 °F 16.7 °F 22.1 °F 75% 30.12 in 10.0 mi NW 18.4 mph 23.0 mph N/A   Scattered Clouds
1:35 PM 31.1 °F 20.1 °F 23.4 °F 73% 30.13 in 10.0 mi WNW 16.1 mph 20.7 mph N/A   Clear
1:55 PM 31.8 °F 21.4 °F 23.9 °F 73% 30.14 in 10.0 mi WNW 15.0 mph - N/A   Clear
2:15 PM 31.6 °F 20.4 °F 23.2 °F 71% 30.15 in 10.0 mi WNW 17.3 mph - N/A   Scattered Clouds
2:35 PM 31.6 °F 20.7 °F 23.0 °F 70% 30.17 in 10.0 mi NW 16.1 mph 21.9 mph N/A   Scattered Clouds
2:55 PM 31.6 °F 21.6 °F 23.0 °F 70% 30.18 in 10.0 mi NW 13.8 mph 21.9 mph N/A   Scattered Clouds
3:15 PM 31.1 °F 20.9 °F 22.6 °F 71% 30.19 in 10.0 mi NW 13.8 mph 21.9 mph N/A   Scattered Clouds
3:35 PM 30.6 °F 20.2 °F 22.5 °F 72% 30.20 in 10.0 mi NW 13.8 mph - N/A   Clear
3:55 PM 30.0 °F 21.1 °F 22.1 °F 72% 30.21 in 10.0 mi NNW 10.4 mph - N/A   Clear
4:15 PM 29.1 °F 20.6 °F 21.9 °F 74% 30.21 in 10.0 mi NW 9.2 mph - N/A   Clear
4:35 PM 28.2 °F 19.5 °F 21.9 °F 77% 30.23 in 10.0 mi NW 9.2 mph - N/A   Clear
4:55 PM 27.1 °F 21.8 °F 21.7 °F 80% 30.24 in 10.0 mi WNW 4.6 mph - N/A   Clear
5:15 PM 26.1 °F 16.8 °F 21.9 °F 84% 30.25 in 10.0 mi WNW 9.2 mph - N/A   Clear
5:35 PM 26.2 °F 17.1 °F 21.6 °F 82% 30.27 in 10.0 mi WNW 9.2 mph - N/A   Clear
5:55 PM 25.5 °F 16.9 °F 21.2 °F 84% 30.27 in 10.0 mi WNW 8.1 mph - N/A   Clear
6:15 PM 24.8 °F 16.9 °F 21.0 °F 86% 30.28 in 7.0 mi WNW 6.9 mph - N/A   Clear
6:35 PM 23.5 °F 16.4 °F 19.9 °F 86% 30.29 in 7.0 mi WNW 5.8 mph - N/A   Clear
6:55 PM 23.7 °F 16.6 °F 20.5 °F 87% 30.29 in 7.0 mi West 5.8 mph - N/A   Clear
7:15 PM 21.9 °F 15.7 °F 19.2 °F 89% 30.30 in 7.0 mi WSW 4.6 mph - N/A   Clear
7:35 PM 21.4 °F 12.8 °F 18.7 °F 89% 30.31 in 7.0 mi West 6.9 mph - N/A   Clear
7:55 PM 22.3 °F 13.9 °F 20.1 °F 91% 30.32 in 7.0 mi West 6.9 mph - N/A   Clear
8:15 PM 21.0 °F 12.4 °F 19.2 °F 93% 30.32 in 7.0 mi West 6.9 mph - N/A   Clear
8:35 PM 20.1 °F 12.3 °F 18.7 °F 94% 30.32 in 7.0 mi West 5.8 mph - N/A   Clear
8:55 PM 19.4 °F 12.8 °F 18.1 °F 95% 30.31 in 5.0 mi WSW 4.6 mph - N/A   Clear
9:15 PM 19.6 °F 13.0 °F 18.7 °F 96% 30.31 in 5.0 mi SW 4.6 mph - N/A   Clear
9:35 PM 17.6 °F 10.7 °F 16.3 °F 95% 30.32 in 5.0 mi WSW 4.6 mph - N/A   Clear
9:55 PM 18.7 °F 11.9 °F 17.8 °F 96% 30.33 in 5.0 mi WSW 4.6 mph - N/A   Clear
10:15 PM 18.5 °F 11.7 °F 17.6 °F 96% 30.33 in 5.0 mi WSW 4.6 mph - N/A   Clear
10:35 PM 18.3 °F 13.1 °F 17.6 °F 97% 30.32 in 5.0 mi SW 3.5 mph - N/A   Clear
10:55 PM 17.2 °F 10.2 °F 16.5 °F 97% 30.33 in 5.0 mi SW 4.6 mph - N/A   Clear
11:15 PM 17.6 °F 10.7 °F 16.9 °F 97% 30.32 in 5.0 mi SW 4.6 mph - N/A   Clear
11:35 PM 15.8 °F 7.2 °F 15.8 °F 100% 30.33 in 5.0 mi SW 5.8 mph - N/A   Clear
11:55 PM 17.2 °F 8.9 °F 16.5 °F 97% 30.33 in 5.0 mi WSW 5.8 mph - N/A   Clear